Location: Unspecified
(43.5540°N, 0.0000°E)
Time: 00:49:35
(UTC+00:00)

CZ-2C DEB - Visible Passes

Search period start: 05 April 2026 00:00
Search period end: 15 April 2026 00:00
Orbit: 671 x 899 km, 98.0° (Epoch: 28 March)

Date Brightness Start Highest point End Pass type
(mag) Time Alt. Az. Time Alt. Az. Time Alt. Az.
5 Apr ? 00:17:37 12° NNE 00:17:37 12° NNE 00:18:06 10° NNE visible
5 Apr ? 01:58:13 10° NNW 01:58:13 10° NNW 01:58:16 10° NNW visible
6 Apr ? 01:26:40 14° NNW 01:26:40 14° NNW 01:27:21 10° NNW visible
7 Apr ? 00:55:05 16° N 00:55:05 16° N 00:56:06 10° N visible
8 Apr ? 00:23:31 14° NNE 00:23:31 14° NNE 00:24:27 10° NNE visible
8 Apr ? 02:04:07 11° NNW 02:04:07 11° NNW 02:04:20 10° NNW visible
8 Apr ? 23:51:56 10° NE 23:51:56 10° NE 23:52:02 10° NE visible
9 Apr ? 01:32:32 16° NNW 01:32:32 16° NNW 01:33:30 10° NNW visible
10 Apr ? 01:00:57 19° N 01:00:57 19° N 01:02:18 10° N visible
11 Apr ? 00:29:21 17° NNE 00:29:21 17° NNE 00:30:45 10° N visible
11 Apr ? 02:09:57 12° NW 02:09:57 12° NW 02:10:20 10° NNW visible
11 Apr ? 23:57:44 12° NE 23:57:44 12° NE 23:58:36 10° NNE visible
12 Apr ? 01:38:21 18° NNW 01:38:21 18° NNW 01:39:35 10° NNW visible
13 Apr ? 01:06:45 22° N 01:06:45 22° N 01:08:27 10° N visible
14 Apr ? 00:35:07 21° NNE 00:35:07 21° NNE 00:36:58 10° N visible
14 Apr ? 02:15:43 13° NW 02:15:43 13° NW 02:16:15 10° NW visible
